Regional Weather Roundup
Issued by NWS

Home | Current Version | Previous Version | Text Only | Print | Product List | Glossary Off
Versions: 1 2 3 4 5 6 7 8 9 10 11 12 13 14 15 16 17 18 19 20 21 22 23 24 25 26 27 28 29 30 31 32 33 34 35 36 37 38 39 40 41 42 43 44 45 46 47 48 49 50

551
ASUS45 KPSR 191010
RWRAZ

ARIZONA HOURLY REGIONAL WEATHER ROUNDUP
NATIONAL WEATHER SERVICE PHOENIX AZ
300 AM MST SUN FEB 19 2017

NOTE: FAIR INDICATES FEW OR NO CLOUDS BELOW 12,000 FEET WITH NO
SIGNIFICANT WEATHER AND/OR OBSTRUCTIONS TO VISIBILITY.

AZZ001>003-036-191100-
NORTHWEST ARIZONA

CITY           SKY/WX    TMP DP  RH WIND       PRES   REMARKS
BULLHEAD CITY  CLOUDY    54  52  94 S5        29.74R
KINGMAN        CLOUDY    44  41  89 NW3       29.73R FOG
$$

AZZ004>008-015-016-018-191100-
NORTH CENTRAL ARIZONA

CITY           SKY/WX    TMP DP  RH WIND       PRES   REMARKS
GRAND CANYON   LGT SNOW  33  33 100 SW5       29.75S FOG     WCI  29
WILLIAMS       CLOUDY    32  30  93 S9        29.75R WCI  24
PRESCOTT       CLOUDY    36  35  96 SE10      29.76R WCI  28
FLAGSTAFF      LGT SNOW  30  29  96 W7        29.76R FOG     WCI  23
PAYSON         LGT RAIN  36  34  93 VRB5      29.81S WCI  32
PAGE           LGT RAIN  44  39  82 CALM      29.70S
$$

AZZ009>014-017-191100-
NORTHEAST ARIZONA

CITY           SKY/WX    TMP DP  RH WIND       PRES   REMARKS
WINSLOW        PTCLDY    39  36  89 SE5       29.77R
SAINT JOHNS    PTCLDY    37  31  78 W5        29.76S WCI  33
WINDOW ROCK    LGT RAIN  37  33  85 S5        29.78F WCI  33
SHOW LOW       LGT RAIN  32  30  93 S14       29.78R WCI  22
$$

AZZ023-191100-
GREATER PHOENIX AREA

CITY           SKY/WX    TMP DP  RH WIND       PRES   REMARKS
PHOENIX        LGT RAIN  51  49  92 SE9       29.78R
BUCKEYE          N/A     50  50 100 SE6       29.79R
LUKE AFB       DRIZZLE   52 N/A N/A E7        29.78R
DEER VALLEY    LGT RAIN  49  49 100 SE7       29.78R
SCOTTSDALE     LGT RAIN  50  47  89 E6        29.82R FOG
MESA-GATEWAY   CLOUDY    50  46  87 SE7       29.80S
$$

AZZ027-028-191100-
SOUTHWEST MARICOPA COUNTY AND PINAL COUNTY

CITY           SKY/WX    TMP DP  RH WIND       PRES   REMARKS
CASA GRANDE    NOT AVBL
GILA BEND      LGT RAIN  52  50  93 CALM      29.77S
$$

AZZ503-504-507>509-191100-
SOUTHEAST ARIZONA

CITY           SKY/WX    TMP DP  RH WIND       PRES   REMARKS
TUCSON         CLOUDY    49  39  68 S6        29.84S
DAVIS-MONTHAN  CLOUDY    47  39  73 SE6       29.83R
NOGALES        CLOUDY    42  38  85 S6        29.84R
SIERRA VISTA   CLOUDY    39  37  94 CALM      29.85R
DOUGLAS        CLOUDY    41  36  82 S9        29.87R
SAFFORD        CLOUDY    46  36  68 E10G21    29.82R
$$

AZZ020-021-025-026-031-191100-
SOUTHWEST ARIZONA

CITY           SKY/WX    TMP DP  RH WIND       PRES   REMARKS
YUMA           CLOUDY    55  52  89 CALM      29.75S
$$

CAZ031-033-041-043-047-048-061-191100-
SOUTHERN CALIFORNIA

CITY           SKY/WX    TMP DP  RH WIND       PRES   REMARKS
DOWNTOWN L.A.  MOCLDY    55  51  86 E3        29.76R
L.A. AIRPORT   PTCLDY    50  50 100 E3        29.76R
SAN DIEGO      LGT RAIN  56  50  80 NW3       29.81S
BURBANK        MOCLDY    48  46  93 CALM      29.75R
ONTARIO        CLOUDY    52  49  89 W6        29.76S
RIVERSIDE      CLOUDY    52  51  97 CALM      29.76S
PALM SPRINGS   CLOUDY    55  55 100 E3        29.76R
EL CENTRO NAS  CLEAR     51  49  92 S6        29.75R
IMPERIAL       CLEAR     53  52  96 S7        29.73R
BLYTHE         LGT RAIN  53  53 100 S9        29.74R
NEEDLES        LGT RAIN  55  51  86 S6        29.73R
$$

NVZ020-UTZ003-191100-
SOUTHERN NEVADA-UTAH

CITY           SKY/WX    TMP DP  RH WIND       PRES   REMARKS
LAS VEGAS      CLOUDY    51  48  89 E3        29.67S
SALT LAKE CITY CLOUDY    50  35  56 S20       29.60S
$$

NMZ009-TXZ055-191100-
NEW MEXICO-WEST TEXAS

CITY           SKY/WX    TMP DP  RH WIND       PRES   REMARKS
ALBUQUERQUE    CLOUDY    42  33  70 SE14      29.83R
EL PASO        CLOUDY    49  34  56 E6        29.81F
$$


........................KEY........................
SKY/WX - SKY CONDITION/WEATHER
TMP    - TEMPERATURE IN FAHRENHEIT
DP     - DEW POINT IN FAHRENHEIT
RH     - RELATIVE HUMIDITY IN PERCENT
WIND   - DIRECTION AND SPEED IN MILES PER HOUR (MPH)
VRB    - VARIABLE WIND DIRECTION
PRES   - MEAN SEA LEVEL PRESSURE IN INCHES OF MERCURY
         F - FALLING PRESSURE   R - RISING PRESSURE
         S - STEADY PRESSURE
VSB    - VISIBILITY IN MILES
HX     - HEAT INDEX IN FAHRENHEIT
WCI    - WIND CHILL INDEX IN FAHRENHEIT
TC     - TEMPERATURE IN CELSIUS WHICH IS ALSO KNOWN AS
         TEMPERATURE IN CENTIGRADE
AFB    - AIR FORCE BASE
         LUKE AFB IS LUKE AIR FORCE BASE
         DAVIS-MONTHAN IS DAVIS-MONTHAN AIR FORCE BASE
NAS    - NAVAL AIR STATION
         EL CENTRO NAS IS EL CENTRO NAVAL AIR STATION
N/A    - NOT AVAILABLE





USA.gov is the U.S. government's official web portal to all federal, state and local government web resources and services.